EW7772 Weather Reports


Display with metric or nautical units.
time (UTC)temp
F
wind
direction
speed
MPH
gust
MPH
rain 1hr
in
rain 24hr
in
rain mn
in
humidity
%
barometer
mb
20260902101505 73 300 0.0 2.0 0.00 0.00 0.00 58 1021.0
20260902100001 71 300 0.0 2.0 0.00 0.00 0.00 61 1021.1
20260902094558 69 300 0.0 2.0 0.00 0.00 0.00 64 1021.4
20260902093053 67 336 0.0 1.0 0.00 0.00 0.00 66 1021.4
20260902091551 66 340 0.0 1.0 0.00 0.00 0.00 68 1021.3
20260902090048 65 341 0.0 1.0 0.00 0.00 0.00 69 1021.3
20260902084547 65 341 0.0 1.0 0.00 0.00 0.00 71 1021.4
20260902083041 63 341 0.0 0.0 0.00 0.00 0.00 75 1021.3
20260902081537 62 341 0.0 0.0 0.00 0.00 0.00 76 1021.4
20260902080038 61 341 0.0 0.0 0.00 0.00 0.00 77 1021.3
20260902074544 60 341 0.0 0.0 0.00 0.00 0.00 78 1021.1
20260902073031 59 341 0.0 0.0 0.00 0.00 0.00 79 1021.4
20260902071529 59 341 0.0 0.0 0.00 0.00 0.00 81 1021.3
20260902070026 58 342 0.0 0.0 0.00 0.00 0.00 82 1021.3
20260902064527 57 342 0.0 0.0 0.00 0.00 0.00 84 1021.2
20260902063048 56 342 0.0 0.0 0.00 0.00 0.00 85 1021.3
20260902061528 56 342 0.0 0.0 0.00 0.00 0.00 86 1021.3
20260902060024 55 342 0.0 0.0 0.00 0.00 0.00 86 1021.5
20260902054523 55 342 0.0 0.0 0.00 0.00 0.00 87 1021.4
20260902053022 53 342 0.0 0.0 0.00 0.00 0.00 89 1021.3
20260902051535 52 342 0.0 0.0 0.00 0.00 0.00 90 1021.3
20260902050029 52 342 0.0 0.0 0.00 0.00 0.00 90 1021.3
20260902044523 52 342 0.0 0.0 0.00 0.00 0.00 90 1021.1
20260902043021 52 342 0.0 0.0 0.00 0.00 0.00 90 1021.2
20260902041539 52 342 0.0 0.0 0.00 0.00 0.00 89 1021.2
20260902040025 52 342 0.0 0.0 0.00 0.00 0.00 89 1021.0
20260902034518 53 342 0.0 0.0 0.00 0.00 0.00 88 1021.1
20260902033017 53 342 0.0 0.0 0.00 0.00 0.00 88 1021.0
20260902031514 53 342 0.0 0.0 0.00 0.00 0.00 88 1021.1
20260902030013 54 342 0.0 0.0 0.00 0.00 0.00 87 1021.0
20260902024512 54 342 0.0 0.0 0.00 0.00 0.00 87 1021.1
20260902023011 54 342 0.0 0.0 0.00 0.00 0.00 87 1021.2
20260902021510 54 342 0.0 1.0 0.00 0.00 0.00 87 1021.1
20260902020011 54 342 0.0 0.0 0.00 0.00 0.00 87 1021.1
20260902014518 54 341 0.0 0.0 0.00 0.00 0.00 87 1021.2
20260902013011 54 341 0.0 0.0 0.00 0.00 0.00 88 1021.2
20260902011512 54 341 0.0 0.0 0.00 0.00 0.00 87 1021.2
20260902010006 55 341 0.0 0.0 0.00 0.00 0.00 87 1021.3
20260902004504 55 341 0.0 0.0 0.00 0.00 0.00 85 1021.3
20260902003003 56 341 0.0 0.0 0.00 0.00 0.00 84 1021.4
20260902001600 56 341 0.0 0.0 0.00 0.00 0.00 84 1021.5
20260902000100 57 341 0.0 0.0 0.00 0.00 0.00 83 1021.6
20260901234556 57 341 0.0 1.0 0.00 0.00 0.00 82 1021.5
20260901233056 57 336 0.0 1.0 0.00 0.00 0.00 81 1021.5
20260901231600 57 300 0.0 0.0 0.00 0.00 0.00 81 1021.6
20260901230054 58 299 0.0 0.0 0.00 0.00 0.00 81 1021.6
20260901224553 58 300 0.0 1.0 0.00 0.00 0.00 81 1021.6
20260901223052 57 298 0.0 1.0 0.00 0.00 0.00 83 1021.7
20260901221550 57 298 0.0 0.0 0.00 0.00 0.00 83 1021.7
20260901220049 57 298 0.0 0.0 0.00 0.00 0.00 83 1021.6
20260901214549 58 298 0.0 0.0 0.00 0.00 0.00 82 1021.6
20260901213048 58 298 0.0 0.0 0.00 0.00 0.00 81 1021.6
20260901211548 59 298 0.0 0.0 0.00 0.00 0.00 80 1021.6
20260901204547 60 298 0.0 0.0 0.00 0.00 0.00 77 1021.5
20260901203046 60 298 0.0 0.0 0.00 0.00 0.00 77 1021.5
20260901201546 61 298 0.0 1.0 0.00 0.00 0.00 76 1021.4
20260901200045 61 298 0.0 0.0 0.00 0.00 0.00 74 1021.5
20260901194546 62 298 0.0 0.0 0.00 0.00 0.00 74 1021.5
20260901193044 63 298 0.0 0.0 0.00 0.00 0.00 72 1021.4
20260901191545 64 298 0.0 0.0 0.00 0.00 0.00 70 1021.3
20260901190105 65 298 0.0 0.0 0.00 0.00 0.00 69 1021.2
20260901184544 66 298 0.0 0.0 0.00 0.00 0.00 67 1021.0
20260901183044 67 298 0.0 0.0 0.00 0.00 0.00 62 1020.8
20260901181544 68 298 0.0 0.0 0.00 0.00 0.00 59 1020.7
20260901180043 69 298 0.0 0.0 0.00 0.00 0.00 57 1020.4
20260901174550 70 298 0.0 0.0 0.00 0.00 0.00 55 1020.4
20260901173041 70 298 0.0 1.0 0.00 0.00 0.00 54 1020.3
20260901171545 71 298 0.0 1.0 0.00 0.00 0.00 53 1020.3
20260901170041 72 298 0.0 1.0 0.00 0.00 0.00 52 1020.3
20260901164545 72 298 0.0 1.0 0.00 0.00 0.00 48 1020.4
20260901163101 72 298 0.0 3.0 0.00 0.00 0.00 48 1020.5
20260901161539 73 311 0.0 4.0 0.00 0.00 0.00 48 1020.5
20260901160040 73 275 0.0 3.0 0.00 0.00 0.00 48 1020.4
20260901154550 74 291 0.0 2.0 0.00 0.00 0.00 46 1020.5
20260901153041 74 267 0.0 2.0 0.00 0.00 0.00 47 1020.4
20260901151538 74 242 0.0 4.0 0.00 0.00 0.00 48 1020.3
20260901150037 75 268 0.0 4.0 0.00 0.00 0.00 45 1020.4
20260901144536 77 294 0.0 4.0 0.00 0.00 0.00 43 1020.4
20260901143035 76 254 0.0 3.0 0.00 0.00 0.00 44 1020.5
20260901141534 75 240 0.0 3.0 0.00 0.00 0.00 49 1020.5
20260901140033 75 244 0.0 5.0 0.00 0.00 0.00 46 1020.6
20260901134533 76 103 0.0 4.0 0.00 0.00 0.00 47 1020.6
20260901133033 76 273 0.0 5.0 0.00 0.00 0.00 45 1020.7
20260901131529 75 272 0.0 5.0 0.00 0.00 0.00 46 1020.8
20260901130029 74 292 0.0 3.0 0.00 0.00 0.00 49 1020.9
20260901124529 75 213 0.0 4.0 0.00 0.00 0.00 47 1021.0
20260901123027 75 340 1.0 4.0 0.00 0.00 0.00 49 1021.1
20260901121535 74 261 0.0 4.0 0.00 0.00 0.00 51 1021.1
20260901120025 74 276 0.0 6.0 0.00 0.00 0.00 53 1021.1
20260901114525 74 296 0.0 9.0 0.00 0.00 0.00 51 1021.3
20260901113021 74 287 0.0 6.0 0.00 0.00 0.00 53 1021.4
20260901111520 73 294 0.0 5.0 0.00 0.00 0.00 55 1021.4
20260901110019 73 261 0.0 6.0 0.00 0.00 0.00 55 1021.4
20260901104531 73 186 1.0 4.0 0.00 0.00 0.00 56 1021.5
20260901103020 72 290 1.0 6.0 0.00 0.00 0.00 58 1021.5